Time,TemperatureF,DewpointF,PressureIn,WindDirection,WindDirectionDegrees,WindSpeedMPH,WindSpeedGustMPH,Humidity,HourlyPrecipIn,Conditions,Clouds,dailyrainin,SolarRadiationWatts/m^2,SoftwareType,DateUTC
2013-11-03 00:11:00,58.7,53.0,29.93,ENE,76,1.0,5.0,81,0.03,,,0.01,0,weatherlink.com 1.10,2013-11-03 07:11:00,
2013-11-03 00:26:00,58.5,52.0,29.94,ENE,74,3.0,7.0,80,0.03,,,0.02,0,weatherlink.com 1.10,2013-11-03 07:26:00,
2013-11-03 00:41:00,59.1,52.0,29.93,NNE,16,3.0,7.0,78,0.02,,,0.02,0,weatherlink.com 1.10,2013-11-03 07:41:00,
2013-11-03 00:56:00,58.8,54.0,29.93,NNE,16,0.0,2.0,84,0.03,,,0.03,0,weatherlink.com 1.10,2013-11-03 07:56:00,
2013-11-03 01:11:00,58.3,55.0,29.93,NNE,17,1.0,4.0,87,0.03,,,0.04,0,weatherlink.com 1.10,2013-11-03 08:11:00,
2013-11-03 01:26:00,58.3,54.0,29.93,NE,35,2.0,5.0,85,0.02,,,0.04,0,weatherlink.com 1.10,2013-11-03 08:26:00,
2013-11-03 01:41:00,58.3,54.0,29.91,NE,36,2.0,6.0,86,0.02,,,0.04,0,weatherlink.com 1.10,2013-11-03 08:41:00,
2013-11-03 01:56:00,59.1,54.0,29.90,NE,36,0.0,3.0,84,0.01,,,0.04,0,weatherlink.com 1.10,2013-11-03 08:56:00,
2013-11-03 02:11:00,58.7,54.0,29.89,NE,36,2.0,5.0,83,0.00,,,0.04,0,weatherlink.com 1.10,2013-11-03 09:11:00,
2013-11-03 02:26:00,58.4,54.0,29.88,NE,36,3.0,3.0,84,0.00,,,0.04,0,weatherlink.com 1.10,2013-11-03 09:26:00,
2013-11-03 02:41:00,58.9,53.0,29.86,NE,36,1.0,6.0,82,0.00,,,0.04,0,weatherlink.com 1.10,2013-11-03 09:41:00,
2013-11-03 02:56:00,58.9,53.0,29.86,NE,36,0.0,5.0,82,0.00,,,0.04,0,weatherlink.com 1.10,2013-11-03 09:56:00,
2013-11-03 03:11:00,58.5,54.0,29.85,NE,36,1.0,2.0,84,0.00,,,0.04,0,weatherlink.com 1.10,2013-11-03 10:11:00,
2013-11-03 03:26:00,57.9,53.0,29.84,NE,37,1.0,4.0,84,0.00,,,0.04,0,weatherlink.com 1.10,2013-11-03 10:26:00,
2013-11-03 03:41:00,57.2,53.0,29.83,NE,37,0.0,2.0,86,0.00,,,0.04,0,weatherlink.com 1.10,2013-11-03 10:41:00,
2013-11-03 03:56:00,57.1,52.0,29.83,NE,38,3.0,5.0,83,0.00,,,0.04,0,weatherlink.com 1.10,2013-11-03 10:56:00,
2013-11-03 04:11:00,57.2,52.0,29.82,NE,38,2.0,4.0,82,0.00,,,0.04,0,weatherlink.com 1.10,2013-11-03 11:11:00,
2013-11-03 04:26:00,57.3,51.0,29.82,NE,39,0.0,4.0,80,0.00,,,0.04,0,weatherlink.com 1.10,2013-11-03 11:26:00,
2013-11-03 04:41:00,56.8,51.0,29.82,NE,39,0.0,4.0,81,0.00,,,0.04,0,weatherlink.com 1.10,2013-11-03 11:41:00,
2013-11-03 04:56:00,56.4,51.0,29.82,NE,39,0.0,1.0,82,0.00,,,0.04,0,weatherlink.com 1.10,2013-11-03 11:56:00,
2013-11-03 05:11:00,55.9,52.0,29.83,NE,39,0.0,1.0,85,0.00,,,0.04,0,weatherlink.com 1.10,2013-11-03 12:11:00,
2013-11-03 05:26:00,55.7,52.0,29.84,NE,39,0.0,1.0,86,0.00,,,0.04,0,weatherlink.com 1.10,2013-11-03 12:26:00,
2013-11-03 05:41:00,56.0,51.0,29.83,NE,40,0.0,1.0,84,0.00,,,0.04,0,weatherlink.com 1.10,2013-11-03 12:41:00,
2013-11-03 05:56:00,56.0,51.0,29.84,NE,40,1.0,2.0,83,0.00,,,0.04,0,weatherlink.com 1.10,2013-11-03 12:56:00,
2013-11-03 06:11:00,56.7,51.0,29.84,NE,38,5.0,6.0,82,0.00,,,0.04,0,weatherlink.com 1.10,2013-11-03 13:11:00,
2013-11-03 06:26:00,56.5,51.0,29.84,NE,36,0.0,4.0,81,0.00,,,0.04,0,weatherlink.com 1.10,2013-11-03 13:26:00,
2013-11-03 06:41:00,56.2,51.0,29.84,NE,36,0.0,0.0,83,0.00,,,0.04,0,weatherlink.com 1.10,2013-11-03 13:41:00,
2013-11-03 06:56:00,55.7,51.0,29.84,NE,36,0.0,2.0,84,0.00,,,0.04,9,weatherlink.com 1.10,2013-11-03 13:56:00,
2013-11-03 07:12:00,55.5,51.0,29.85,NE,36,0.0,2.0,85,0.00,,,0.04,23,weatherlink.com 1.10,2013-11-03 14:12:00,
2013-11-03 07:27:00,56.0,52.0,29.85,NE,36,0.0,1.0,86,0.00,,,0.04,79,weatherlink.com 1.10,2013-11-03 14:27:00,
2013-11-03 07:42:00,57.8,52.0,29.86,NE,36,1.0,1.0,82,0.01,,,0.05,127,weatherlink.com 1.10,2013-11-03 14:42:00,
2013-11-03 07:57:00,59.3,52.0,29.86,NE,36,0.0,0.0,76,0.01,,,0.05,185,weatherlink.com 1.10,2013-11-03 14:57:00,
2013-11-03 08:12:00,61.8,53.0,29.87,NE,36,0.0,0.0,72,0.01,,,0.05,260,weatherlink.com 1.10,2013-11-03 15:12:00,
2013-11-03 08:27:00,63.8,52.0,29.86,NE,36,0.0,1.0,65,0.00,,,0.05,323,weatherlink.com 1.10,2013-11-03 15:27:00,
2013-11-03 08:42:00,65.2,53.0,29.87,NE,36,0.0,2.0,64,0.00,,,0.05,390,weatherlink.com 1.10,2013-11-03 15:42:00,
2013-11-03 08:57:00,67.2,53.0,29.87,NE,35,3.0,4.0,60,0.00,,,0.05,510,weatherlink.com 1.10,2013-11-03 15:57:00,
2013-11-03 09:12:00,68.0,52.0,29.88,NNE,32,2.0,4.0,57,0.00,,,0.05,517,weatherlink.com 1.10,2013-11-03 16:12:00,
2013-11-03 09:27:00,69.0,52.0,29.88,NNE,31,1.0,3.0,55,0.00,,,0.05,570,weatherlink.com 1.10,2013-11-03 16:27:00,
2013-11-03 09:42:00,70.6,52.0,29.87,NNE,32,2.0,2.0,53,0.00,,,0.05,541,weatherlink.com 1.10,2013-11-03 16:42:00,
2013-11-03 09:57:00,72.0,53.0,29.87,NNE,32,0.0,2.0,52,0.00,,,0.05,591,weatherlink.com 1.10,2013-11-03 16:57:00,
2013-11-03 10:12:00,73.7,52.0,29.87,NE,37,0.0,3.0,47,0.00,,,0.05,598,weatherlink.com 1.10,2013-11-03 17:12:00,
2013-11-03 10:27:00,73.9,51.0,29.86,NE,38,2.0,4.0,45,0.00,,,0.05,640,weatherlink.com 1.10,2013-11-03 17:27:00,
2013-11-03 10:42:00,75.7,51.0,29.86,NE,37,2.0,4.0,42,0.00,,,0.05,721,weatherlink.com 1.10,2013-11-03 17:42:00,
2013-11-03 10:57:00,75.3,49.0,29.86,East,86,3.0,6.0,40,0.00,,,0.05,816,weatherlink.com 1.10,2013-11-03 17:57:00,
2013-11-03 11:12:00,75.7,48.0,29.85,South,183,1.0,6.0,38,0.00,,,0.05,708,weatherlink.com 1.10,2013-11-03 18:12:00,
2013-11-03 11:27:00,76.0,49.0,29.84,South,188,4.0,6.0,39,0.00,,,0.05,766,weatherlink.com 1.10,2013-11-03 18:27:00,
2013-11-03 11:42:00,77.0,47.0,29.84,West,272,4.0,8.0,34,0.00,,,0.05,715,weatherlink.com 1.10,2013-11-03 18:42:00,
2013-11-03 11:58:00,77.2,47.0,29.83,West,277,0.0,5.0,34,0.00,,,0.05,693,weatherlink.com 1.10,2013-11-03 18:58:00,
2013-11-03 12:13:00,78.0,47.0,29.82,West,275,1.0,6.0,33,0.00,,,0.05,682,weatherlink.com 1.10,2013-11-03 19:13:00,
2013-11-03 12:28:00,78.2,46.0,29.82,SSW,209,5.0,7.0,32,0.00,,,0.05,680,weatherlink.com 1.10,2013-11-03 19:28:00,
2013-11-03 12:43:00,78.7,46.0,29.81,South,180,3.0,8.0,32,0.00,,,0.05,671,weatherlink.com 1.10,2013-11-03 19:43:00,
2013-11-03 12:58:00,78.8,47.0,29.80,SSE,166,1.0,6.0,32,0.00,,,0.05,659,weatherlink.com 1.10,2013-11-03 19:58:00,
2013-11-03 13:13:00,80.2,47.0,29.80,WSW,246,3.0,10.0,31,0.00,,,0.05,677,weatherlink.com 1.10,2013-11-03 20:13:00,
2013-11-03 13:28:00,80.2,46.0,29.79,WSW,255,5.0,10.0,30,0.00,,,0.05,635,weatherlink.com 1.10,2013-11-03 20:28:00,
2013-11-03 13:43:00,79.8,47.0,29.78,SSW,208,6.0,7.0,32,0.00,,,0.05,619,weatherlink.com 1.10,2013-11-03 20:43:00,
2013-11-03 13:58:00,80.5,47.0,29.77,WSW,249,7.0,13.0,31,0.00,,,0.05,591,weatherlink.com 1.10,2013-11-03 20:58:00,
2013-11-03 14:13:00,81.2,46.0,29.77,WSW,252,4.0,11.0,29,0.00,,,0.05,552,weatherlink.com 1.10,2013-11-03 21:13:00,
2013-11-03 14:28:00,81.5,46.0,29.76,WSW,247,8.0,10.0,29,0.00,,,0.05,512,weatherlink.com 1.10,2013-11-03 21:28:00,
2013-11-03 14:43:00,80.9,45.0,29.75,SSW,202,2.0,11.0,28,0.00,,,0.05,148,weatherlink.com 1.10,2013-11-03 21:43:00,
2013-11-03 14:58:00,81.1,44.0,29.75,West,279,1.0,9.0,27,0.00,,,0.05,550,weatherlink.com 1.10,2013-11-03 21:58:00,
2013-11-03 15:13:00,80.1,43.0,29.75,West,281,4.0,9.0,27,0.00,,,0.05,482,weatherlink.com 1.10,2013-11-03 22:13:00,
2013-11-03 15:28:00,81.8,42.0,29.75,SSW,209,7.0,15.0,24,0.00,,,0.05,362,weatherlink.com 1.10,2013-11-03 22:28:00,
2013-11-03 15:43:00,80.6,43.0,29.74,SW,220,6.0,12.0,26,0.00,,,0.05,60,weatherlink.com 1.10,2013-11-03 22:43:00,
2013-11-03 15:58:00,79.0,41.0,29.74,SSW,192,6.0,11.0,26,0.00,,,0.05,72,weatherlink.com 1.10,2013-11-03 22:58:00,
2013-11-03 16:13:00,80.1,41.0,29.74,South,184,5.0,11.0,25,0.00,,,0.05,206,weatherlink.com 1.10,2013-11-03 23:13:00,
2013-11-03 16:28:00,79.3,42.0,29.74,WSW,240,9.0,12.0,26,0.00,,,0.05,105,weatherlink.com 1.10,2013-11-03 23:28:00,
2013-11-03 16:43:00,79.0,42.0,29.74,WSW,257,4.0,14.0,27,0.00,,,0.05,97,weatherlink.com 1.10,2013-11-03 23:43:00,
2013-11-03 16:58:00,78.4,43.0,29.74,WSW,256,5.0,9.0,28,0.00,,,0.05,51,weatherlink.com 1.10,2013-11-03 23:58:00,
2013-11-03 17:13:00,77.5,42.0,29.74,West,275,5.0,10.0,28,0.00,,,0.05,18,weatherlink.com 1.10,2013-11-04 00:13:00,
2013-11-03 17:28:00,75.8,41.0,29.74,WSW,254,3.0,10.0,29,0.00,,,0.05,7,weatherlink.com 1.10,2013-11-04 00:28:00,
2013-11-03 17:43:00,74.3,43.0,29.74,WSW,252,3.0,5.0,32,0.00,,,0.05,0,weatherlink.com 1.10,2013-11-04 00:43:00,
2013-11-03 17:58:00,73.0,42.0,29.74,WSW,250,3.0,5.0,33,0.00,,,0.05,0,weatherlink.com 1.10,2013-11-04 00:58:00,
2013-11-03 18:13:00,71.8,43.0,29.75,WSW,250,2.0,3.0,35,0.00,,,0.05,0,weatherlink.com 1.10,2013-11-04 01:13:00,
2013-11-03 18:28:00,70.5,42.0,29.76,WSW,250,1.0,3.0,36,0.00,,,0.05,0,weatherlink.com 1.10,2013-11-04 01:28:00,
2013-11-03 18:43:00,69.5,42.0,29.76,WSW,250,1.0,4.0,37,0.00,,,0.05,0,weatherlink.com 1.10,2013-11-04 01:43:00,
2013-11-03 18:58:00,68.4,42.0,29.77,WSW,250,1.0,3.0,39,0.00,,,0.05,0,weatherlink.com 1.10,2013-11-04 01:58:00,
2013-11-03 19:13:00,68.0,41.0,29.77,WSW,250,2.0,4.0,38,0.00,,,0.05,0,weatherlink.com 1.10,2013-11-04 02:13:00,
2013-11-03 19:28:00,67.7,41.0,29.77,WSW,250,1.0,3.0,38,0.00,,,0.05,0,weatherlink.com 1.10,2013-11-04 02:28:00,
2013-11-03 19:43:00,67.0,41.0,29.78,WSW,250,1.0,2.0,39,0.00,,,0.05,0,weatherlink.com 1.10,2013-11-04 02:43:00,
2013-11-03 19:58:00,66.3,40.0,29.78,WSW,251,2.0,3.0,39,0.00,,,0.05,0,weatherlink.com 1.10,2013-11-04 02:58:00,
2013-11-03 20:13:00,65.8,41.0,29.78,WSW,251,1.0,3.0,40,0.00,,,0.05,0,weatherlink.com 1.10,2013-11-04 03:13:00,
2013-11-03 20:28:00,65.1,41.0,29.78,WSW,251,2.0,2.0,41,0.00,,,0.05,0,weatherlink.com 1.10,2013-11-04 03:28:00,
2013-11-03 20:43:00,64.6,41.0,29.79,WSW,251,1.0,4.0,42,0.00,,,0.05,0,weatherlink.com 1.10,2013-11-04 03:43:00,
2013-11-03 20:58:00,64.2,40.0,29.79,WSW,250,0.0,2.0,42,0.00,,,0.05,0,weatherlink.com 1.10,2013-11-04 03:58:00,
2013-11-03 21:13:00,62.9,42.0,29.80,WSW,250,0.0,0.0,46,0.00,,,0.05,0,weatherlink.com 1.10,2013-11-04 04:13:00,
2013-11-03 21:28:00,61.1,41.0,29.80,WSW,250,0.0,1.0,47,0.00,,,0.05,0,weatherlink.com 1.10,2013-11-04 04:28:00,
2013-11-03 21:43:00,60.0,42.0,29.80,WSW,250,0.0,2.0,51,0.00,,,0.05,0,weatherlink.com 1.10,2013-11-04 04:43:00,
2013-11-03 21:58:00,59.6,41.0,29.80,WSW,250,0.0,2.0,51,0.00,,,0.05,0,weatherlink.com 1.10,2013-11-04 04:58:00,
2013-11-03 22:13:00,59.9,42.0,29.80,WSW,251,2.0,3.0,51,0.00,,,0.05,0,weatherlink.com 1.10,2013-11-04 05:13:00,
2013-11-03 22:28:00,60.2,41.0,29.80,North,5,2.0,5.0,50,0.00,,,0.05,0,weatherlink.com 1.10,2013-11-04 05:28:00,
2013-11-03 22:43:00,60.6,42.0,29.80,NNE,22,1.0,2.0,50,0.00,,,0.05,0,weatherlink.com 1.10,2013-11-04 05:43:00,
2013-11-03 22:58:00,59.6,41.0,29.80,NNE,22,1.0,2.0,51,0.00,,,0.05,0,weatherlink.com 1.10,2013-11-04 05:58:00,
2013-11-03 23:13:00,59.5,42.0,29.80,NNE,22,0.0,2.0,52,0.00,,,0.05,0,weatherlink.com 1.10,2013-11-04 06:13:00,
2013-11-03 23:28:00,58.3,41.0,29.81,NNE,22,0.0,1.0,54,0.00,,,0.05,0,weatherlink.com 1.10,2013-11-04 06:28:00,
2013-11-03 23:43:00,58.0,42.0,29.80,NNE,22,0.0,1.0,55,0.00,,,0.05,0,weatherlink.com 1.10,2013-11-04 06:43:00,
2013-11-03 23:58:00,57.6,42.0,29.80,NNE,22,1.0,2.0,56,0.00,,,0.00,0,weatherlink.com 1.10,2013-11-04 06:58:00,